[[{"header":{"parameterUnit":"m.s-1","parameterCategory":1,"la1":30.2991,"la2":30.254,"lo1":-89.0895,"lo2":-89.0444,"dy":0.0017,"dx":0.0017,"nx":28,"ny":28,"refTime":"2025-01-01T03:00:00:Z","depth":0,"parameterNumber":2,"parameterNumberName":"U-component_of_WINDS"},"data":[0,0,0,0,0,0,0,0,0,0,0,0,0,0,0,0,0,0,0,0,0,0,0,0,0,0,0,0,0,0,0,0,0,0,0,0,0,0,0,0,0,0,0,0,0,0,0,0,0,0,0,0,0,0,0,0,0,0,-0.453,-0.453,0,-0.4516,-0.4516,-0.4515,-0.4477,-0.4477,-0.4476,-0.4475,-0.4462,-0.4462,-0.4463,0,0,0,0,0,0,0,0,0,0,0,0,0,-0.4526,-0.4526,-0.453,-0.453,-0.453,-0.4516,-0.4516,-0.4515,-0.4478,-0.4477,-0.4476,-0.4475,-0.4462,-0.4462,-0.4463,0,0,0,0,0,0,0,0,0,0,0,0,0,-0.4521,-0.4526,-0.453,-0.4509,-0.4507,-0.4516,-0.4516,-0.4515,-0.4478,-0.4477,-0.4475,-0.4474,-0.4462,-0.4462,-0.4463,-0.4491,0,0,-0.4465,-0.4465,0,0,0,0,0,0,0,0,-0.4522,-0.4521,-0.4513,-0.4511,-0.4508,-0.4497,-0.4509,-0.4507,-0.4478,-0.4489,-0.4475,-0.4474,-0.4475,-0.4474,-0.4474,-0.4491,-0.449,-0.4465,-0.4465,-0.4465,-0.4466,0,0,0,0,0,0,0,-0.4522,-0.4522,-0.4525,-0.4512,-0.451,-0.4501,-0.4499,-0.4509,-0.4489,-0.4488,-0.4485,-0.4484,-0.4473,-0.4474,-0.4474,-0.449,-0.4465,-0.4465,-0.4466,-0.4466,-0.4528,-0.453,0,0,0,0,0,0,-0.4525,-0.4522,-0.4525,-0.4524,-0.4512,-0.4502,-0.45,-0.4502,-0.4489,-0.4486,-0.4485,-0.4482,-0.4473,-0.4473,-0.4473,-0.4505,-0.4465,-0.4466,-0.4466,-0.4527,-0.4529,-0.453,0,0,0,0,0,0,-0.4525,-0.4526,-0.4526,-0.4522,-0.4522,-0.4503,-0.4506,-0.4502,-0.4503,-0.4486,-0.4483,-0.4489,-0.4472,-0.4472,-0.4487,-0.4504,-0.4466,-0.4467,-0.4526,-0.4528,-0.4529,-0.4571,0,0,0,0,0,0,-0.4525,-0.4526,-0.4536,-0.4523,-0.4522,-0.454,-0.4507,-0.4503,-0.4504,-0.45,-0.4489,-0.4486,-0.4471,-0.4486,-0.4487,-0.4505,-0.4467,-0.4524,-0.4526,-0.4529,-0.4568,-0.4574,-0.4579,0,0,0,0,0,-0.4525,-0.4549,-0.4537,-0.4538,-0.4535,-0.4541,-0.454,-0.4522,-0.4505,-0.4516,-0.4505,-0.4487,-0.4502,-0.4488,-0.4489,-0.4507,-0.4523,-0.4526,-0.4529,-0.4565,-0.4573,-0.4579,0,0,0,0,0,0,-0.4566,-0.4547,-0.4534,-0.4554,-0.4549,-0.4534,-0.4547,-0.4531,-0.4531,-0.4527,-0.4505,-0.4503,-0.4521,-0.4515,-0.45,-0.4533,-0.4509,-0.4513,-0.4537,-0.4544,-0.4549,-0.4551,-0.4468,0,0,0,0,0,-0.4577,-0.4583,-0.4566,-0.4586,-0.4584,-0.4566,-0.4568,-0.4554,-0.4549,-0.4547,-0.4537,-0.4533,-0.4536,-0.454,-0.4542,-0.4566,-0.4563,-0.4579,-0.4584,-0.4589,-0.4593,-0.4605,-0.4612,-0.454,-0.4539,-0.4539,0,0,-0.4601,-0.4591,-0.4597,-0.4594,-0.4588,-0.4596,-0.4565,-0.4573,-0.4579,-0.4548,-0.4561,-0.4554,-0.4548,-0.4567,-0.4575,-0.4563,-0.4612,-0.4593,-0.4597,-0.4598,-0.4609,-0.4616,-0.4622,-0.4541,-0.4541,-0.4541,0,0,-0.4648,-0.4641,-0.4656,-0.4651,-0.4643,-0.4631,-0.4634,-0.4622,-0.4616,-0.4628,-0.4605,-0.4611,-0.4618,-0.4614,-0.4613,-0.4658,-0.4641,-0.4659,-0.4689,-0.4701,-0.4707,-0.4712,-0.4728,-0.4734,-0.4662,-0.4662,-0.4662,0,-0.4678,-0.4688,-0.4666,-0.4676,-0.4676,-0.4647,-0.4663,-0.4659,-0.4653,-0.4654,-0.4639,-0.4647,-0.4641,-0.4659,-0.467,-0.467,-0.4673,-0.4661,-0.4708,-0.4713,-0.4717,-0.4732,-0.4738,-0.4665,-0.4664,-0.4664,-0.4664,0,-0.4726,-0.4733,-0.4746,-0.474,-0.4741,-0.4754,-0.4734,-0.4738,-0.4724,-0.4713,-0.4726,-0.4717,-0.4717,-0.472,-0.4707,-0.4737,-0.4729,-0.4712,-0.4687,-0.4727,-0.4741,-0.4746,-0.4668,-0.4667,-0.4666,-0.4666,0,0,-0.48,-0.478,-0.4786,-0.4782,-0.4771,-0.4776,-0.4787,-0.4787,-0.479,-0.4786,-0.4796,-0.4802,-0.4785,-0.4784,-0.477,-0.478,-0.4816,-0.4761,-0.4761,-0.4773,-0.4849,-0.4863,-0.487,-0.4804,-0.4805,-0.4806,-0.485,0,-0.4844,-0.4863,-0.4843,-0.4865,-0.4872,-0.4844,-0.4854,-0.4848,-0.4838,-0.4841,-0.483,-0.4835,-0.4813,-0.4812,-0.4821,-0.481,-0.4831,-0.4806,-0.4814,-0.4814,-0.4817,-0.4877,-0.4892,-0.4934,-0.4855,-0.4856,-0.4856,0,-0.4899,-0.4897,-0.492,-0.4906,-0.4908,-0.4918,-0.4915,-0.4919,-0.4912,-0.4903,-0.4902,-0.4884,-0.4894,-0.4869,-0.4884,-0.4867,-0.4868,-0.4863,-0.4864,-0.4866,-0.4839,-0.4881,-0.4947,-0.4953,-0.4865,-0.4864,-0.4864,0,-0.4952,-0.4955,-0.4968,-0.4966,-0.4951,-0.4958,-0.4952,-0.4943,-0.4944,-0.4942,-0.4942,-0.4941,-0.4941,-0.4941,-0.4924,-0.4907,-0.494,-0.4914,-0.4934,-0.4935,-0.4944,-0.4944,-0.5012,-0.4943,-0.4943,-0.4943,-0.4943,0,-0.5004,-0.502,-0.4992,-0.5001,-0.5017,-0.4994,-0.5011,-0.5002,-0.4994,-0.5001,-0.4976,-0.4983,-0.4959,-0.4963,-0.495,-0.4964,-0.4964,-0.4958,-0.4954,-0.4961,-0.4962,-0.4962,-0.4959,-0.4945,-0.4944,-0.4944,-0.4944,0,-0.5066,-0.5048,-0.5062,-0.5045,-0.5041,-0.5054,-0.504,-0.5048,-0.5035,-0.5044,-0.5045,-0.5026,-0.5029,-0.5011,-0.5012,-0.5003,-0.5024,-0.5015,-0.5027,-0.5025,-0.5046,-0.5045,-0.5118,-0.5127,-0.5052,-0.5052,-0.5053,0,-0.5102,-0.5113,-0.5097,-0.51,-0.5094,-0.5099,-0.5099,-0.5077,-0.5078,-0.507,-0.5079,-0.508,-0.508,-0.5088,-0.5074,-0.5074,-0.5066,-0.5091,-0.5066,-0.5072,-0.5067,-0.5067,-0.5068,-0.5097,-0.5098,-0.5099,-0.51,0,-0.5167,-0.5157,-0.5158,-0.5156,-0.5157,-0.5155,-0.515,-0.5154,-0.5129,-0.5132,-0.5135,-0.5136,-0.5136,-0.5138,-0.5135,-0.5129,-0.5111,-0.5107,-0.5112,-0.512,-0.5126,-0.5124,-0.5043,-0.5106,-0.5106,-0.5105,-0.5105,-0.5104,-0.5217,-0.5226,-0.5216,-0.5218,-0.5212,-0.5208,-0.5215,-0.5202,-0.5204,-0.5203,-0.5189,-0.5195,-0.5186,-0.5181,-0.5176,-0.5181,-0.5169,-0.5176,-0.5178,-0.518,-0.5184,-0.5124,-0.518,-0.518,-0.518,-0.518,-0.5179,0,-0.5282,-0.5274,-0.5276,-0.527,-0.5272,-0.5253,-0.5247,-0.525,-0.5255,-0.5248,-0.5249,-0.5252,-0.5254,-0.524,-0.5239,-0.5246,-0.5237,-0.5246,-0.5246,-0.5245,-0.5195,-0.5191,-0.5253,-0.5253,-0.5253,-0.5253,-0.5253,-0.5253,-0.5316,-0.5329,-0.5318,-0.5328,-0.5319,-0.5325,-0.5323,-0.5319,-0.5314,-0.5319,-0.532,-0.531,-0.5301,-0.5299,-0.53,-0.5296,-0.5297,-0.531,-0.5303,-0.5256,-0.5249,-0.5242,-0.5238,-0.531,-0.531,-0.5353,-0.5353,-0.5354]},{"header":{"parameterUnit":"m.s-1","parameterCategory":1,"la1":30.2991,"la2":30.254,"lo1":-89.0895,"lo2":-89.0444,"dy":0.0017,"dx":0.0017,"nx":28,"ny":28,"refTime":"2025-01-01T03:00:00:Z","depth":0,"parameterNumber":3,"parameterNumberName":"V-component_of_WINDS"},"data":[0,0,0,0,0,0,0,0,0,0,0,0,0,0,0,0,0,0,0,0,0,0,0,0,0,0,0,0,0,0,0,0,0,0,0,0,0,0,0,0,0,0,0,0,0,0,0,0,0,0,0,0,0,0,0,0,0,0,-4.3737,-4.3738,0,-4.3777,-4.3777,-4.3778,-4.3752,-4.3751,-4.375,-4.3749,-4.3785,-4.3787,-4.3789,0,0,0,0,0,0,0,0,0,0,0,0,0,-4.3638,-4.364,-4.3737,-4.3738,-4.3738,-4.3777,-4.3777,-4.3778,-4.3752,-4.3751,-4.375,-4.3748,-4.3784,-4.3787,-4.3789,0,0,0,0,0,0,0,0,0,0,0,0,0,-4.3679,-4.364,-4.3737,-4.3731,-4.373,-4.3776,-4.3777,-4.3778,-4.3753,-4.3751,-4.3749,-4.3748,-4.3784,-4.3787,-4.379,-4.3844,0,0,-4.3799,-4.38,0,0,0,0,0,0,0,0,-4.3677,-4.3683,-4.3731,-4.3731,-4.3731,-4.3758,-4.3755,-4.38,-4.3753,-4.3744,-4.3749,-4.3747,-4.3777,-4.3781,-4.3792,-4.3845,-4.3847,-4.3799,-4.3801,-4.3803,-4.3803,0,0,0,0,0,0,0,-4.3674,-4.3681,-4.3753,-4.3732,-4.3732,-4.3725,-4.3729,-4.3764,-4.377,-4.3745,-4.3743,-4.3748,-4.3777,-4.3789,-4.3792,-4.3847,-4.3799,-4.3802,-4.3804,-4.3805,-4.3949,-4.395,0,0,0,0,0,0,-4.3672,-4.3679,-4.3752,-4.3754,-4.3699,-4.3728,-4.3732,-4.3751,-4.3769,-4.3771,-4.375,-4.3747,-4.3784,-4.3789,-4.3794,-4.3859,-4.3803,-4.3805,-4.3807,-4.3947,-4.3949,-4.3951,0,0,0,0,0,0,-4.367,-4.3679,-4.375,-4.3716,-4.3725,-4.3731,-4.3753,-4.3753,-4.3765,-4.3773,-4.3774,-4.3761,-4.3783,-4.3789,-4.3832,-4.386,-4.3807,-4.381,-4.3944,-4.3947,-4.395,-4.3991,0,0,0,0,0,0,-4.3667,-4.3678,-4.37,-4.3717,-4.3727,-4.3789,-4.3754,-4.3755,-4.3771,-4.3767,-4.3784,-4.3785,-4.3782,-4.3828,-4.3835,-4.3864,-4.3812,-4.3942,-4.3946,-4.3949,-4.3987,-4.3994,-4.4001,0,0,0,0,0,-4.3664,-4.3708,-4.3701,-4.371,-4.3753,-4.379,-4.3796,-4.3793,-4.3773,-4.3794,-4.38,-4.3785,-4.3856,-4.3832,-4.384,-4.387,-4.394,-4.3945,-4.3949,-4.3983,-4.3993,-4.4001,0,0,0,0,0,0,-4.3692,-4.371,-4.3702,-4.3754,-4.3771,-4.3786,-4.3813,-4.3803,-4.3825,-4.3821,-4.3815,-4.3819,-4.3864,-4.3871,-4.3844,-4.3924,-4.3895,-4.3901,-4.3918,-4.3927,-4.3934,-4.3932,-4.3815,0,0,0,0,0,-4.3705,-4.3735,-4.3748,-4.3792,-4.3801,-4.3806,-4.3821,-4.3818,-4.3835,-4.3842,-4.385,-4.3867,-4.3893,-4.391,-4.3934,-4.3987,-4.3991,-4.4012,-4.4019,-4.4025,-4.4031,-4.4061,-4.407,-4.3966,-4.3966,-4.3966,0,0,-4.373,-4.3744,-4.3763,-4.3798,-4.3811,-4.3842,-4.3812,-4.3845,-4.3867,-4.3846,-4.3888,-4.3895,-4.3913,-4.3961,-4.3983,-4.3968,-4.406,-4.4031,-4.4035,-4.4038,-4.4066,-4.4076,-4.4085,-4.3969,-4.3968,-4.3968,0,0,-4.3793,-4.3806,-4.3845,-4.3859,-4.388,-4.3883,-4.3892,-4.3909,-4.3914,-4.3956,-4.3941,-4.3967,-4.4012,-4.4026,-4.4039,-4.4108,-4.4095,-4.4116,-4.4154,-4.4183,-4.4191,-4.4199,-4.4225,-4.4234,-4.4121,-4.4121,-4.4121,0,-4.3822,-4.3868,-4.3865,-4.3901,-4.3917,-4.3901,-4.3941,-4.3954,-4.3981,-4.3992,-4.3976,-4.4033,-4.4043,-4.4096,-4.4113,-4.4123,-4.4134,-4.4114,-4.4191,-4.4198,-4.4205,-4.4229,-4.4239,-4.4124,-4.4124,-4.4123,-4.4123,0,-4.3903,-4.3936,-4.3965,-4.3994,-4.4013,-4.405,-4.4052,-4.4072,-4.4067,-4.4071,-4.4114,-4.4127,-4.4154,-4.4166,-4.416,-4.4218,-4.4209,-4.4191,-4.4162,-4.4217,-4.424,-4.425,-4.4127,-4.4127,-4.4126,-4.4125,0,0,-4.3985,-4.4013,-4.4024,-4.4038,-4.406,-4.4085,-4.4121,-4.4149,-4.4167,-4.4186,-4.4216,-4.4255,-4.424,-4.4255,-4.425,-4.4276,-4.4332,-4.4256,-4.4256,-4.4271,-4.4398,-4.4412,-4.4423,-4.4323,-4.4325,-4.4327,-4.4397,0,-4.405,-4.4115,-4.4114,-4.4174,-4.4205,-4.4191,-4.4222,-4.4239,-4.4244,-4.427,-4.4275,-4.4303,-4.428,-4.429,-4.4314,-4.432,-4.4358,-4.4315,-4.4352,-4.4353,-4.4349,-4.4434,-4.4449,-4.4515,-4.4406,-4.4407,-4.4408,0,-4.4135,-4.4159,-4.4223,-4.4243,-4.4256,-4.4284,-4.4311,-4.4336,-4.4355,-4.4356,-4.4374,-4.4366,-4.4402,-4.4371,-4.4421,-4.4392,-4.4407,-4.4413,-4.4415,-4.4419,-4.4385,-4.4442,-4.4535,-4.4546,-4.4422,-4.4421,-4.442,0,-4.419,-4.4238,-4.4284,-4.4295,-4.4319,-4.434,-4.435,-4.4367,-4.4385,-4.4408,-4.4419,-4.4445,-4.446,-4.448,-4.4479,-4.4456,-4.453,-4.4499,-4.4533,-4.4533,-4.455,-4.4549,-4.4648,-4.4558,-4.4557,-4.4557,-4.4557,0,-4.4264,-4.4303,-4.4309,-4.4337,-4.4381,-4.4379,-4.4423,-4.4431,-4.4447,-4.4475,-4.4463,-4.449,-4.4487,-4.4514,-4.4513,-4.4556,-4.4562,-4.4565,-4.4564,-4.4567,-4.4567,-4.4577,-4.4573,-4.456,-4.4559,-4.4559,-4.4558,0,-4.4333,-4.4338,-4.4387,-4.4406,-4.4411,-4.4443,-4.4459,-4.4485,-4.449,-4.4526,-4.4535,-4.4541,-4.4572,-4.4574,-4.4609,-4.4608,-4.4661,-4.4654,-4.4655,-4.4654,-4.4689,-4.4687,-4.4799,-4.4815,-4.4713,-4.4714,-4.4714,0,-4.438,-4.4411,-4.4434,-4.4454,-4.4466,-4.4497,-4.4516,-4.4515,-4.4534,-4.4559,-4.4582,-4.4613,-4.4637,-4.4688,-4.4695,-4.4722,-4.4717,-4.4755,-4.4721,-4.4723,-4.472,-4.4719,-4.4722,-4.4762,-4.4763,-4.4764,-4.4765,0,-4.4465,-4.4466,-4.4494,-4.4524,-4.4548,-4.457,-4.4591,-4.4607,-4.4609,-4.4632,-4.4665,-4.4684,-4.4721,-4.4752,-4.4778,-4.4788,-4.4777,-4.4775,-4.4785,-4.4788,-4.4788,-4.479,-4.4675,-4.4773,-4.4772,-4.4771,-4.4771,-4.4771,-4.4525,-4.4553,-4.4574,-4.4607,-4.4623,-4.4643,-4.467,-4.4678,-4.4706,-4.4738,-4.4735,-4.4772,-4.479,-4.4825,-4.4837,-4.4865,-4.4852,-4.4866,-4.4869,-4.4873,-4.4878,-4.4783,-4.487,-4.4869,-4.4869,-4.4869,-4.4869,0,-4.461,-4.4624,-4.4654,-4.4685,-4.4711,-4.4699,-4.4722,-4.4744,-4.4777,-4.4796,-4.4821,-4.486,-4.4889,-4.49,-4.4929,-4.4949,-4.4945,-4.4957,-4.4956,-4.4959,-4.4887,-4.4877,-4.496,-4.496,-4.496,-4.496,-4.496,-4.496,-4.4658,-4.4705,-4.4709,-4.4763,-4.4776,-4.4813,-4.4828,-4.4847,-4.4862,-4.4906,-4.4932,-4.4939,-4.4954,-4.4984,-4.5011,-4.5013,-4.5025,-4.5039,-4.504,-4.4973,-4.4963,-4.4955,-4.4945,-4.5042,-4.5042,-4.5109,-4.511,-4.511]}]]